Location: Newark
(25.6108°S, 54.5803°W)
Time: 21:09:34
(UTC+00:00)

Courier 1B - Pass Details

Date: 30 October 2020
Orbit: 962 x 1209 km, 28.3° (Epoch: 24 November)

Event Time Altitude Azimuth Distance (km) Brightness Sun altitude
Rises 08:48:36 0° 268° (W) 4,102 10.1 -1.3°
Reaches altitude 10° 08:52:21 10° 283° (WNW) 3,111 9.5 -0.5°
Maximum altitude 08:57:40 20° 327° (NNW) 2,382 9.2 0.7°
Drops below altitude 10° 09:02:50 10° 12° (NNE) 2,995 10.1 1.8°
Sets 09:06:22 0° 28° (NNE) 3,903 10.8 2.6°
